EW6887 Weather Reports


time (UTC)temp
F
wind
direction
speed
knots
gust
knots
rain 1hr
in
rain 24hr
in
rain mn
in
humidity
%
barometer
mb
20260507231520 53 346 0.0 0.0 0.00 0.00 0.00 84 1014.1
20260507230015 53 345 0.0 0.0 0.00 0.00 0.00 84 1014.1
20260507224505 53 5 0.0 0.0 0.00 0.00 0.00 83 1014.0
20260507223058 53 348 0.0 0.0 0.00 0.00 0.00 81 1014.0
20260507221550 54 324 0.0 0.0 0.00 0.00 0.00 82 1013.9
20260507220043 54 343 0.0 0.0 0.00 0.00 0.00 80 1013.9
20260507214505 54 322 0.0 0.0 0.00 0.00 0.00 79 1013.9
20260507213058 54 355 0.0 0.0 0.00 0.00 0.00 77 1013.8
20260507211604 55 355 0.0 0.0 0.00 0.00 0.00 77 1013.6
20260507210042 55 57 0.0 0.0 0.00 0.00 0.00 77 1013.4
20260507204534 55 57 0.0 0.0 0.00 0.00 0.00 77 1013.2
20260507203025 55 130 0.0 0.0 0.00 0.00 0.00 77 1013.0
20260507201614 55 136 0.0 0.0 0.00 0.00 0.00 75 1012.8
20260507200005 56 173 0.0 0.0 0.00 0.00 0.00 74 1012.7
20260507194601 56 173 0.0 0.0 0.00 0.00 0.00 73 1012.6
20260507193049 57 174 0.0 0.0 0.00 0.00 0.00 72 1012.6
20260507191613 57 192 0.0 0.0 0.00 0.00 0.00 70 1012.4
20260507190004 58 180 0.0 0.0 0.00 0.00 0.00 67 1012.1
20260507184551 59 180 0.0 0.0 0.00 0.00 0.00 65 1011.9
20260507183145 60 176 0.0 0.0 0.00 0.00 0.00 62 1011.8
20260507181537 60 196 0.0 0.0 0.00 0.00 0.00 61 1011.5
20260507180028 61 183 0.0 0.0 0.00 0.00 0.00 59 1011.3
20260507174519 62 178 0.0 0.0 0.00 0.00 0.00 57 1011.2
20260507173007 63 169 0.0 0.0 0.00 0.00 0.00 56 1011.1
20260507171602 63 166 0.0 0.0 0.00 0.00 0.00 56 1010.9
20260507170052 64 191 0.0 0.0 0.00 0.00 0.00 55 1010.8
20260507164547 65 123 0.0 0.0 0.00 0.00 0.00 53 1010.7
20260507163036 65 167 0.0 0.0 0.00 0.00 0.00 54 1010.5
20260507161530 64 175 0.0 0.0 0.00 0.00 0.00 55 1010.5
20260507160021 65 188 0.0 0.0 0.00 0.00 0.00 55 1010.5
20260507154511 66 190 0.0 0.0 0.00 0.00 0.00 53 1010.3
20260507153102 65 186 0.0 0.0 0.00 0.00 0.00 54 1010.4
20260507151552 67 86 0.0 0.0 0.00 0.00 0.00 50 1010.2
20260507150049 68 135 0.0 0.0 0.00 0.00 0.00 48 1010.0
20260507144545 68 154 0.0 0.0 0.00 0.00 0.00 47 1010.0
20260507143006 67 82 0.0 0.0 0.00 0.00 0.00 49 1010.1
20260507141559 68 113 0.0 0.0 0.00 0.00 0.00 49 1010.0
20260507140101 67 360 0.0 0.0 0.00 0.00 0.00 47 1010.1
20260507134543 68 85 0.0 0.0 0.00 0.00 0.00 46 1010.1
20260507133038 68 81 0.0 0.0 0.00 0.00 0.00 47 1010.2
20260507131631 67 58 0.0 0.0 0.00 0.00 0.00 47 1010.2
20260507130019 67 145 0.0 0.0 0.00 0.00 0.00 47 1010.3
20260507124515 67 102 0.0 0.0 0.00 0.00 0.00 48 1010.2
20260507123004 66 175 0.0 0.0 0.00 0.00 0.00 49 1010.1
20260507121557 65 92 0.0 0.0 0.00 0.00 0.00 51 1010.1
20260507120050 64 126 0.0 0.0 0.00 0.00 0.00 56 1010.2
20260507114646 66 360 0.0 0.0 0.00 0.00 0.00 55 1010.2
20260507113139 65 360 0.0 0.0 0.00 0.00 0.00 57 1010.1
20260507111530 65 360 0.0 0.0 0.00 0.00 0.00 55 1010.0
20260507110020 65 349 0.0 0.0 0.00 0.00 0.00 59 1009.9
20260507104520 66 294 0.0 0.0 0.00 0.00 0.00 60 1009.9
20260507103008 65 82 0.0 0.0 0.00 0.00 0.00 60 1009.9
20260507101608 65 83 0.0 0.0 0.00 0.00 0.00 62 1009.9
20260507100050 64 46 0.0 0.0 0.00 0.00 0.00 63 1009.9
20260507094558 62 105 0.0 0.0 0.00 0.00 0.00 66 1009.7
20260507093049 61 78 0.0 0.0 0.00 0.00 0.00 68 1009.8
20260507091558 60 62 0.0 0.0 0.00 0.00 0.00 71 1009.8
20260507090032 60 71 0.0 0.0 0.00 0.00 0.00 72 1009.6
20260507084527 59 57 0.0 0.0 0.00 0.00 0.00 76 1009.6
20260507083021 58 65 0.0 0.0 0.00 0.00 0.00 78 1009.5
20260507081511 58 95 0.0 0.0 0.00 0.00 0.00 78 1009.5
20260507080104 58 98 0.0 0.0 0.00 0.00 0.00 77 1009.4
20260507074555 58 80 0.0 0.0 0.00 0.00 0.00 77 1009.3
20260507073100 59 57 0.0 0.0 0.00 0.00 0.00 77 1009.1
20260507071546 58 94 0.0 0.0 0.00 0.00 0.00 80 1009.1
20260507070100 57 101 0.0 0.0 0.00 0.00 0.00 81 1009.0
20260507064631 57 66 0.0 0.0 0.00 0.00 0.00 83 1008.8
20260507063024 56 92 0.0 0.0 0.00 0.00 0.00 85 1008.7
20260507061527 56 88 0.0 0.0 0.00 0.00 0.00 87 1008.6
20260507060006 56 51 0.0 0.0 0.00 0.00 0.00 87 1008.4
20260507054608 55 88 0.0 0.0 0.00 0.00 0.00 88 1008.2
20260507053053 55 103 0.0 0.0 0.00 0.00 0.00 88 1008.1
20260507051545 55 65 0.0 0.0 0.00 0.00 0.00 88 1007.9
20260507050037 55 39 0.0 0.0 0.00 0.00 0.00 89 1007.7
20260507044540 55 11 0.0 0.0 0.00 0.00 0.00 90 1007.5
20260507043019 54 236 0.0 0.0 0.00 0.00 0.00 90 1007.3
20260507041513 54 222 0.0 0.0 0.00 0.00 0.00 90 1007.0
20260507040004 54 222 0.0 0.0 0.00 0.00 0.00 89 1006.9
20260507034553 54 222 0.0 0.0 0.00 0.00 0.00 89 1007.0
20260507033149 55 222 0.0 0.0 0.00 0.00 0.00 87 1006.8
20260507031542 55 198 0.0 0.0 0.00 0.00 0.00 86 1006.8
20260507030033 55 187 0.0 0.0 0.00 0.00 0.00 84 1006.6
20260507024519 56 82 0.0 0.0 0.00 0.00 0.00 82 1006.4
20260507023110 56 11 0.0 0.0 0.00 0.00 0.00 80 1006.2
20260507021502 56 10 0.0 0.0 0.00 0.00 0.00 80 1005.9
20260507020105 57 269 0.0 0.0 0.00 0.00 0.00 78 1005.8
20260507014609 57 269 0.0 0.0 0.00 0.00 0.00 78 1005.6
20260507013052 57 246 0.0 0.0 0.00 0.00 0.00 78 1005.7
20260507011538 57 246 0.0 0.0 0.00 0.00 0.00 77 1005.6
20260507010028 57 287 0.0 0.0 0.00 0.00 0.00 77 1005.2
20260507004519 58 234 0.0 0.0 0.00 0.00 0.00 77 1005.1
20260507003013 58 244 0.0 0.0 0.00 0.00 0.00 76 1005.1
20260507001510 58 246 0.0 0.0 0.00 0.00 0.00 78 1004.7
20260507000059 58 244 0.0 0.0 0.00 0.00 0.00 82 1004.6
20260506234550 57 222 0.0 0.0 0.00 0.00 0.00 83 1004.8
20260506233054 57 209 0.0 0.0 0.00 0.00 0.00 84 1004.8